Location: Kuppenheim
(48.8299°N, 8.2568°E)
Time: 13:22:21
(UTC+00:00)

Cosmos 540 Rocket - Pass Details

Date: 20 June 2021
Orbit: 739 x 754 km, 74.1° (Epoch: 29 July)

Event Time Altitude Azimuth Distance (km) Brightness Sun altitude
Exits shadow 00:15:11 24° 158° (SSE) 1,502 4.5 -17.0°
Maximum altitude 00:17:42 41° 104° (ESE) 1,075 4.2 -16.9°
Drops below altitude 10° 00:22:28 10° 36° (NE) 2,262 7.0 -16.7°
Sets 00:24:56 0° 29° (NNE) 3,191 8.2 -16.6°
